Regional Weather Roundup
Issued by NWS

Home | Current Version | Previous Version | Graphics & Text | Print | Product List | Glossary On
Versions: 1 2 3 4 5 6 7 8 9 10 11 12 13 14 15 16 17 18 19 20 21 22 23 24 25 26 27 28 29 30 31 32 33 34 35 36 37 38 39 40 41 42 43 44 45 46 47 48 49 50
000
ASUS43 KDMX 312107
RWRIA

WEATHER ROUNDUP FOR IOWA
NATIONAL WEATHER SERVICE DES MOINES IA
400 PM CDT MON AUG 31 2015

NOTE: "FAIR" INDICATES FEW OR NO CLOUDS BELOW 12,000 FEET WITH NO
SIGNIFICANT WEATHER AND/OR OBSTRUCTIONS TO VISIBILITY.

* - THESE STATIONS ARE NOT NWS STATIONS...THUS NOT UNDER NWS
QUALITY CONTROL.  THEY ALSO DO NOT REPORT WEATHER SUCH
AS PRECIPITATION OR FOG.

IAZ001>003-012>014-020>022-031>034-043>046-312200-
   NORTHWEST IOWA

CITY           SKY/WX    TMP DP  RH WIND       PRES   REMARKS
CARROLL *      MOSUNNY   82  72  69 SW13      29.93F HX  87
CHEROKEE *       N/A     81  68  65 S15G21    29.91F HX  83
DENISON *      SUNNY     81  70  69 S12G18    29.92S HX  84
LE MARS *      SUNNY     82  70  65 S13G23    29.89F HX  86
ORANGE CITY *  SUNNY     82  70  65 S15       29.90S HX  86
SHELDON *      SUNNY     81  68  65 S14G22    29.89F HX  83
SIOUX CITY       N/A     84  69  60 S16       29.89F HX  88
SPENCER          N/A     83  67  58 S17       29.91F HX  85
STORM LAKE *   MOSUNNY   81  70  69 S20       29.93F HX  84
$$

IAZ055>058-069>071-079>083-090>094-312200-
   SOUTHWEST IOWA

CITY           SKY/WX    TMP DP  RH WIND       PRES   REMARKS
ATLANTIC *     MOSUNNY   84  68  58 SW14      29.94F HX  87
AUDUBON *      MOSUNNY   82  72  69 S7        29.95F HX  87
CLARINDA *     SUNNY     86  72  62 S9        29.94F HX  92
COUNCIL BLFS * MOSUNNY   84  66  54 S13       29.93F HX  86
CRESTON *      MOSUNNY   84  72  65 SW10      29.97F HX  89
LAMONI           N/A     85  71  63 S12       29.96F HX  90
RED OAK *      MOSUNNY   84  68  58 S9        29.93F HX  87
SHENANDOAH *   MOSUNNY   86  68  54 S10       29.93F HX  89
$$

IAZ047>049-059>061-072>074-084-312200-
   CENTRAL IOWA

CITY           SKY/WX    TMP DP  RH WIND       PRES   REMARKS
AMES             N/A     86  72  62 S13       29.94F HX  92
ANKENY *       MOSUNNY   86  72  62 S12G18    29.93F HX  92
CHARITON *     SUNNY     86  70  58 S12       29.96S HX  90
DES MOINES       N/A     87  71  58 S12       29.93F HX  93
GRINNELL*        N/A     86  72  62 S10       29.96F HX  92
KNOXVILLE *    PTSUNNY   86  72  62 S10G17    29.93F HX  92
MARSHALLTOWN     N/A     85  72  65 S14       29.94F HX  91
PELLA *          N/A     88  75  66 S9        29.95F HX  97
PERRY *          N/A     86  72  62 S10       29.93F HX  92
$$

IAZ004>006-015-016-023>025-035-036-312200-
   NORTH CENTRAL IOWA

CITY           SKY/WX    TMP DP  RH WIND       PRES   REMARKS
ALGONA *       MOSUNNY   82  72  69 S14       29.93F HX  87
CLARION *      SUNNY     84  72  65 S15       29.94F HX  89
ESTHERVILLE      N/A     81  69  67 S14G23    29.91F HX  84
FORT DODGE *     N/A     84  70  61 S14       29.94F HX  88
MASON CITY       N/A     84  72  67 S15       29.96F HX  89
FOREST CITY *  MOSUNNY   82  70  65 S12       29.94F HX  86
IOWA FALLS *     N/A     86  72  62 S12       29.96F HX  92
$$

IAZ007>011-017>019-026>030-037>042-050>054-066-312200-
   NORTHEAST IOWA

CITY           SKY/WX    TMP DP  RH WIND       PRES   REMARKS
CEDAR RAPIDS     N/A     85  75  72 S12       29.97F HX  93
CHARLES CITY * MOSUNNY   82  75  78 S9G15     29.97F HX  89
CLINTON *        N/A     84  72  65 S9        30.02F HX  89
DECORAH *      PTSUNNY   82  72  69 S7        29.98S HX  87
DUBUQUE          N/A     82  70  66 S8        30.01F HX  86
MONTICELLO *   PTSUNNY   84  73  70 S9G16     29.99S HX  91
OELWEIN *      MOSUNNY   82  73  74 S9G15     29.99F HX  88
WATERLOO       PTSUNNY   84  72  67 S15       29.95F HX  89
$$

IAZ064-065-067-068-078-312200-
   EAST CENTRAL IOWA

CITY           SKY/WX    TMP DP  RH WIND       PRES   REMARKS
DAVENPORT        N/A     87  73  62 S7        29.99F HX  94
IOWA CITY        N/A     87  74  64 SE9       29.98F HX  95
MT. PLEASANT *   N/A     91  66  43 S8        29.97F HX  94
MUSCATINE *    MOSUNNY   90  72  55 S10       29.97F HX  96
QUAD CITIES      N/A     87  71  58 S8        29.98F HX  93
$$

IAZ062-063-075>077-085>089-095>099-312200-
   SOUTHEAST IOWA

CITY           SKY/WX    TMP DP  RH WIND       PRES   REMARKS
BURLINGTON       N/A     87  72  60 S9        29.98F HX  93
FAIRFIELD *    SUNNY     90  70  51 S15       29.96F HX  95
FORT MADISON * SUNNY     88  72  58 S8        29.99F HX  94
KEOKUK *       SUNNY     90  70  51 SE10      29.96F HX  95
OSKALOOSA *      N/A     88  70  55 S8        29.96F HX  92
CENTERVILLE *  MOSUNNY   86  72  62 S8        29.98S HX  92
OTTUMWA          N/A     87  72  60 S13       29.94F HX  93
WASHINGTON *     N/A    N/A N/A N/A MISG        N/A
$$

ABBREVIATIONS USED IN REMARKS
   TC - TEMPERATURES IN CELSIUS
  WCI - WIND CHILL INDEX
   HX - HEAT INDEX
  VSB - VISIBILITY
$$



USA.gov is the U.S. government's official web portal to all federal, state and local government web resources and services.